878  
ASUS43 KARX 230310  
RWRARX  
 
HOURLY WEATHER FOR THE UPPER MISSISSIPPI RIVER VALLEY  
NATIONAL WEATHER SERVICE LA CROSSE WI  
900 PM CST THU FEB 22 2024  
 
NOTE: "FAIR" INDICATES FEW OR NO CLOUDS BELOW 12,000 FEET WITH NO  
SIGNIFICANT WEATER AND/OR S TO VISIBILITY
.  
 
MNZ077-085>088-093>096-230400  
SOUTHEAST MINNESOTA  
 
CITY SKY/WX TMP DP RH WIND PRES REMARKS
 
ROCHESTER CLEAR 33 29 85 NW16 29.79R WCI 23  
WINONA CLEAR 39 32 75 NW9G17 29.78R WCI 33  
AUSTIN CLEAR 36 30 80 NW14 29.82S WCI 27  
ALBERT LEA CLEAR 34 30 86 W3 29.83S  
DODGE CENTER CLEAR 34 30 86 W13 29.80S WCI 25  
PRESTON CLEAR 34 34 100 NW18 29.78R WCI 23  
OWATONNA CLEAR 34 30 86 W8 29.82F WCI 27  
FARIBAULT CLEAR 36 30 80 W8 29.82R WCI 29  

 
 
WIZ041-042-053>056-061-230400  
SOUTHWEST WISCONSIN  
 
CITY SKY/WX TMP DP RH WIND PRES REMARKS
 
LA CROSSE CLEAR 43 33 68 NW16 29.74R  
SPARTA CLEAR 42 35 74 W8 29.71R  
WIS DELLS CLEAR 47 31 52 NW8 29.68R  
PRAIRIE DU CHI CLEAR 43 32 65 W13 29.76R  
BOSCOBEL CLEAR 48 34 58 W12G21 29.74R  
LONE ROCK CLEAR 48 31 51 NW9 29.70R  
PLATTEVILLE CLEAR 45 15 30 W13G18 29.73R  

 
 
WIZ017-030-034>036-043>045-230400  
CENTRAL WISCONSIN  
 
CITY SKY/WX TMP DP RH WIND PRES REMARKS
 
MEDFORD PTCLDY 38 25 58 NW7 29.66S WCI 33  
WAUSAU CLEAR 41 30 65 W9 29.63R  
BLACK RVR FLS CLEAR 42 32 68 W6 29.72R  
WIS RAPIDS CLEAR 42 30 62 W8 29.68R  
MARSHFIELD CLEAR 40 30 67 W10 29.67R WCI 33  
MAUSTON CLEAR 45 31 59 NW12 29.69R  
CAMP DOUGLAS CLEAR 42 28 57 W9 29.68R  
WAUTOMA CLEAR N/A N/A N/A NW12 29.67R  

 
 
IAZ008>011-017>019-029-030-230400  
NORTHEAST IOWA  
 
CITY SKY/WX TMP DP RH WIND PRES REMARKS
 
WATERLOO CLEAR 42 31 64 NW12 29.82R  
DUBUQUE CLEAR 46 29 51 NW20 29.74R  
DECORAH CLEAR 37 32 81 NW7G15 29.77R WCI 32  
MASON CITY CLEAR 36 28 73 NW14 29.85S WCI 27  
CHARLES CITY CLEAR 37 32 81 NW15G22 29.82R WCI 28  
OELWEIN CLEAR 39 30 70 NW13 29.80R WCI 32  

 
 
WIND SPEEDS ARE IN MILES PER HOUR.  
 
ABBREVIATIONS USED IN THE REMARKS:  
VSB - VISIBILITY IN STATUTE MILES  
WCI - WIND CHILL INDEX  
HX - HEAT INDEX  
 
 
CLICK HERE TO GO TO PREVIOUS BULLETINS.

The Nexlab WI Page
The Nexlab IA Page
The Nexlab MN Page Main Text Page